Starlink 1962

operational
NORAD ID: 47563 Int'l Des: 2021-009 Owner: SPXS Country: US Constellation: starlink
LEOCIRCULARSTARLINK_TYPE

Starlink 1962について

説明を読み込み中...

リアルタイム位置

3D地球を読み込み中...

次回通過

高度履歴

Altitude vs Time

uPlot chart will show altitude changes over time

軌道要素

1 47563U 21009R 25293.30613855 -.00000638 00000-0 -23919-4 0 9996
2 47563 53.0533 291.8257 0001383 90.8402 269.2746 15.06391044259632
Epoch: Oct 20, 2025 • Age: 18 hours

現在のステータス

高度 547.4 km
速度 7.59 km/s
衛星直下点 20.68°N, 99.48°W
打ち上げ日 Feb 4, 2021
運用期間 4.7 years
タイプ internet

技術仕様

分類 Payload
質量 260.00 kg
乾燥質量 248.00 kg
総質量 260.00 kg
長さ 0.20 m
直径 2.80 m
スパン 9.00 m
形状 Box + pan
製造者 SPXS
バスタイプ Starlink
フェーズステータス In Orbit
所有者/国 SPXS/US

大規模コンステレーション

Loading constellations...